• En España
  • Lista de países
  • Para 7 días
  • Temperatura del agua
  • Mapa Satelital
  • El tiempo en el mapa
  • Informadores
  • user-avatar
    Iniciar sesión

    Tiempo cada hora Neuquén

    Hoy, 20 Septiembre, Jueves

    Tiempo Temperatura Precipitaciones Viento Presión Humedad
    00:00 +12°C° 0 mm 3 mps 731 mmHg 56%
    01:00 +11°C° 0 mm 3 mps 731 mmHg 58%
    02:00 +11°C° 0 mm 4 mps 731 mmHg 56%
    03:00 +11°C° 0 mm 4 mps 730 mmHg 54%
    04:00 +10°C° 0 mm 5 mps 730 mmHg 53%
    05:00 +12°C° 0 mm 5 mps 730 mmHg 50%
    06:00 +11°C° 0 mm 6 mps 730 mmHg 47%
    07:00 +13°C° 0 mm 6 mps 730 mmHg 44%
    08:00 +15°C° 0 mm 7 mps 729 mmHg 40%
    09:00 +16°C° 0 mm 8 mps 729 mmHg 36%
    10:00 +18°C° 0 mm 9 mps 729 mmHg 32%
    11:00 +19°C° 0 mm 9 mps 728 mmHg 31%
    12:00 +21°C° 0 mm 10 mps 728 mmHg 30%
    13:00 +22°C° 0 mm 10 mps 727 mmHg 29%
    14:00 +22°C° 0 mm 11 mps 727 mmHg 29%
    15:00 +22°C° 0 mm 11 mps 727 mmHg 29%
    16:00 +22°C° 0 mm 11 mps 727 mmHg 30%
    17:00 +19°C° 0 mm 10 mps 728 mmHg 31%
    18:00 +18°C° 0 mm 9 mps 728 mmHg 33%
    19:00 +17°C° 0 mm 8 mps 728 mmHg 35%
    20:00 +16°C° 0 mm 7 mps 728 mmHg 36%
    21:00 +16°C° 0 mm 6 mps 728 mmHg 38%
    22:00 +15°C° 0 mm 6 mps 728 mmHg 39%
    23:00 +15°C° 0 mm 6 mps 728 mmHg 39%

    Mañana, 21 Septiembre, Viernes

    Tiempo Temperatura Precipitaciones Viento Presión Humedad
    00:00 +15°C° 0 mm 7 mps 728 mmHg 39%
    01:00 +15°C° 0 mm 7 mps 728 mmHg 39%
    02:00 +15°C° 0 mm 7 mps 728 mmHg 41%
    03:00 +15°C° 0 mm 7 mps 728 mmHg 42%
    04:00 +14°C° 0 mm 7 mps 728 mmHg 43%
    05:00 +15°C° 0 mm 6 mps 729 mmHg 44%
    06:00 +15°C° 0 mm 6 mps 729 mmHg 44%
    07:00 +15°C° 0 mm 5 mps 729 mmHg 44%
    08:00 +17°C° 0 mm 7 mps 729 mmHg 40%
    09:00 +20°C° 0 mm 8 mps 729 mmHg 35%
    10:00 +22°C° 0 mm 9 mps 729 mmHg 31%
    11:00 +24°C° 0 mm 10 mps 728 mmHg 28%
    12:00 +26°C° 0 mm 11 mps 727 mmHg 24%
    13:00 +27°C° 0 mm 12 mps 726 mmHg 21%
    14:00 +27°C° 0 mm 12 mps 726 mmHg 20%
    15:00 +27°C° 0 mm 12 mps 725 mmHg 19%
    16:00 +27°C° 0 mm 12 mps 724 mmHg 18%
    17:00 +24°C° 0 mm 11 mps 724 mmHg 21%
    18:00 +23°C° 0 mm 10 mps 724 mmHg 25%
    19:00 +22°C° 0 mm 8 mps 725 mmHg 28%
    20:00 +21°C° 0 mm 9 mps 725 mmHg 32%
    21:00 +19°C° 0 mm 9 mps 725 mmHg 35%
    22:00 +18°C° 0 mm 9 mps 725 mmHg 38%
    23:00 +18°C° 0 mm 9 mps 725 mmHg 39%

    Pasado mañana, 22 Septiembre, Sábado

    Tiempo Temperatura Precipitaciones Viento Presión Humedad
    00:00 +17°C° 0 mm 8 mps 724 mmHg 40%
    01:00 +16°C° 0 mm 7 mps 724 mmHg 40%
    02:00 +16°C° 0 mm 8 mps 724 mmHg 43%
    03:00 +15°C° 0 mm 9 mps 725 mmHg 46%
    04:00 +13°C° 0 mm 10 mps 725 mmHg 50%
    05:00 +13°C° 0 mm 11 mps 726 mmHg 45%
    06:00 +13°C° 0 mm 13 mps 726 mmHg 40%
    07:00 +14°C° 0 mm 15 mps 727 mmHg 35%
    08:00 +15°C° 0 mm 16 mps 727 mmHg 31%
    09:00 +16°C° 0 mm 16 mps 727 mmHg 27%
    10:00 +18°C° 0 mm 16 mps 727 mmHg 23%
    11:00 +19°C° 0 mm 16 mps 727 mmHg 22%
    12:00 +20°C° 0 mm 16 mps 727 mmHg 21%
    13:00 +20°C° 0 mm 16 mps 727 mmHg 19%
    14:00 +20°C° 0 mm 16 mps 727 mmHg 20%
    15:00 +20°C° 0 mm 16 mps 727 mmHg 21%
    16:00 +20°C° 0 mm 15 mps 727 mmHg 21%
    17:00 +18°C° 0 mm 14 mps 727 mmHg 24%
    18:00 +17°C° 0 mm 12 mps 728 mmHg 28%
    19:00 +16°C° 0 mm 10 mps 729 mmHg 31%
    20:00 +15°C° 0 mm 9 mps 729 mmHg 34%
    21:00 +13°C° 0 mm 8 mps 730 mmHg 37%
    22:00 +12°C° 0 mm 7 mps 730 mmHg 39%
    23:00 +13°C° 0 mm 5 mps 730 mmHg 42%

    23 Septiembre, Domingo

    Tiempo Temperatura Precipitaciones Viento Presión Humedad
    00:00 +12°C° 0 mm 4 mps 731 mmHg 44%
    01:00 +12°C° 0 mm 2 mps 731 mmHg 46%
    02:00 +12°C° 0 mm 2 mps 731 mmHg 47%
    03:00 +11°C° 0 mm 3 mps 731 mmHg 48%
    04:00 +10°C° 0 mm 3 mps 732 mmHg 49%
    05:00 +11°C° 0 mm 3 mps 732 mmHg 47%
    06:00 +11°C° 0 mm 4 mps 733 mmHg 44%
    07:00 +12°C° 0 mm 5 mps 734 mmHg 42%
    08:00 +14°C° 0 mm 7 mps 734 mmHg 37%
    09:00 +15°C° 0 mm 9 mps 734 mmHg 32%
    10:00 +16°C° 0 mm 11 mps 735 mmHg 27%
    11:00 +17°C° 0 mm 11 mps 734 mmHg 25%
    12:00 +17°C° 0 mm 11 mps 734 mmHg 23%
    13:00 +18°C° 0 mm 11 mps 734 mmHg 21%
    14:00 +17°C° 0 mm 10 mps 734 mmHg 21%
    15:00 +17°C° 0 mm 10 mps 734 mmHg 22%
    16:00 +16°C° 0 mm 10 mps 734 mmHg 23%
    17:00 +16°C° 0 mm 9 mps 735 mmHg 26%
    18:00 +15°C° 0 mm 8 mps 736 mmHg 30%
    19:00 +14°C° 0 mm 7 mps 736 mmHg 33%
    20:00 +12°C° 0 mm 7 mps 737 mmHg 37%
    21:00 +11°C° 0 mm 7 mps 737 mmHg 40%
    22:00 +11°C° 0 mm 7 mps 737 mmHg 43%
    23:00 +10°C° 0 mm 6 mps 738 mmHg 44%

    24 Septiembre, Lunes

    Tiempo Temperatura Precipitaciones Viento Presión Humedad
    00:00 +9°C° 0 mm 5 mps 738 mmHg 46%
    01:00 +10°C° 0 mm 3 mps 738 mmHg 47%
    02:00 +9°C° 0 mm 3 mps 738 mmHg 47%
    03:00 +9°C° 0 mm 3 mps 738 mmHg 48%
    04:00 +8°C° 0 mm 2 mps 738 mmHg 48%
    05:00 +9°C° 0 mm 2 mps 738 mmHg 46%
    06:00 +9°C° 0 mm 2 mps 739 mmHg 43%
    07:00 +10°C° 0 mm 2 mps 739 mmHg 40%
    08:00 +12°C° 0 mm 2 mps 738 mmHg 35%
    09:00 +14°C° 0 mm 2 mps 738 mmHg 31%
    10:00 +15°C° 0 mm 2 mps 738 mmHg 26%
    11:00 +17°C° 0 mm 3 mps 737 mmHg 25%
    12:00 +18°C° 0 mm 4 mps 736 mmHg 24%
    13:00 +19°C° 0 mm 6 mps 735 mmHg 23%
    14:00 +20°C° 0 mm 5 mps 734 mmHg 23%
    15:00 +20°C° 0 mm 5 mps 733 mmHg 23%
    16:00 +21°C° 0 mm 5 mps 733 mmHg 23%
    17:00 +20°C° 0 mm 4 mps 733 mmHg 25%
    18:00 +20°C° 0 mm 4 mps 733 mmHg 26%
    19:00 +19°C° 0 mm 4 mps 733 mmHg 28%
    20:00 +18°C° 0 mm 4 mps 733 mmHg 30%
    21:00 +18°C° 0 mm 3 mps 732 mmHg 32%
    22:00 +17°C° 0 mm 3 mps 732 mmHg 34%
    23:00 +17°C° 0 mm 3 mps 732 mmHg 36%

    25 Septiembre, Martes

    Tiempo Temperatura Precipitaciones Viento Presión Humedad
    00:00 +15°C° 0 mm 4 mps 731 mmHg 38%
    01:00 +14°C° 0 mm 4 mps 731 mmHg 40%
    02:00 +14°C° 0 mm 4 mps 731 mmHg 39%
    03:00 +13°C° 0 mm 5 mps 731 mmHg 38%
    04:00 +13°C° 0 mm 5 mps 731 mmHg 37%
    05:00 +13°C° 0 mm 5 mps 731 mmHg 34%
    06:00 +13°C° 0 mm 6 mps 732 mmHg 32%
    07:00 +14°C° 0 mm 6 mps 732 mmHg 29%
    08:00 +15°C° 0 mm 6 mps 732 mmHg 27%
    09:00 +16°C° 0 mm 5 mps 732 mmHg 25%
    10:00 +17°C° 0 mm 5 mps 732 mmHg 23%
    11:00 +17°C° 0 mm 5 mps 731 mmHg 23%
    12:00 +19°C° 0 mm 4 mps 731 mmHg 23%
    13:00 +19°C° 0 mm 3 mps 730 mmHg 24%
    14:00 +19°C° 0 mm 3 mps 730 mmHg 26%
    15:00 +18°C° 0 mm 3 mps 730 mmHg 28%
    16:00 +18°C° 0 mm 2 mps 730 mmHg 31%
    17:00 +17°C° 0 mm 2 mps 730 mmHg 34%
    18:00 +17°C° 0 mm 2 mps 731 mmHg 36%
    19:00 +16°C° 0 mm 2 mps 731 mmHg 39%
    20:00 +16°C° 0.1 mm 2 mps 731 mmHg 43%
    21:00 +15°C° 0.1 mm 2 mps 731 mmHg 47%
    22:00 +15°C° 0.1 mm 2 mps 731 mmHg 51%
    23:00 +14°C° 0.2 mm 2 mps 731 mmHg 54%
    Mostrar más